星链-4285 (STARLINK-4285 )

导读 | 豆包AI

STARLINK-4285是美国太空探索技术公司Starlink(星链)星座中的一颗卫星,于2022年7月7日发射升空。星链旨在构建全球卫星互联网,为偏远地区等提供高速网络服务,该卫星入轨后,为星座网络提供了更多容量与覆盖能力,推进星链星座全球组网进程。

基本信息
目录编号:
52991
目录名称:
STARLINK-4285
国际标识:
2022-076F
轨道中心:
EARTH
卫星名称:
星链-4285
卫星全名:
星链-4285 (STARLINK-4285 )
卫星状态:
在轨 (已飞行1393 天)
发射日期:
2022-07-07 UTC
国别 :
美国 (US)
星等 :
--
轨道信息
数据来源 国际轨道数据 AOE轨道数据
星历时间 2026-04-30T08:14:08+0800
19小时前
查看轨道信息
2026-04-30T08:00:00+0800
19小时前
查看轨道信息
半长轴 6917.885km 6917.861km
偏心率 0.0000947 0.0001895
轨道倾角 53.218° 53.215°
近地点辐角 85.300° 26.653°
升交点赤经 233.738° 233.777°
平近点角 274.810° 280.096°
近地点 539.092km 538.413km
远地点 540.404km 541.035km
周期 95.438分钟 95.437分钟
每日圈数 15.088385 15.088464
详细信息
固有亮度:
5
最大亮度:
2.5
卫星平台:
Starlink v1.5
覆盖范围:
全球
运营商:
太空探索技术公司
运营商所在国:
美国
制造商(研发单位):
太空探索技术公司
制造商所在国:
美国
使用方式:
暂无
卫星简介
星链(Starlink)计划是由太空探索技术公司(SpaceX)提出的一个巨型低轨卫星互联网星座项目,计划在2019年至2024年间在太空搭建由约1.2万颗卫星组成的“星链”网络,其中1584颗将部署在地球上空550千米处的近地轨道,并从2020年开始工作。该卫星仍在工作。
2D轨道图
3D轨道图
轨道高度分析图
轨道倾角分析图
轨道综合分析图
查看轨道综合分析图